{"data":{"norad_id":63581,"epoch":"2026-09-20T10:02:39.597504Z","epoch_age_seconds":159654,"freshness":"FRESH","line1":"1 63581U 25076N   26263.41851386  .00008989  00000+0  33572-3 0  9994","line2":"2 63581  43.0012 301.7955 0001173 259.5781 100.4939 15.27587091 81611","mean_motion":15.27587091,"eccentricity":0.0001173,"inclination_deg":43.0012,"raan_deg":301.7955,"arg_perigee_deg":259.5781,"mean_anomaly_deg":100.4939,"bstar":0.00033572,"rev_number":8161,"period_min":94.266311131062,"perigee_km":482.22304847837,"apogee_km":483.83267775526,"semimajor_km":6861.1648631168,"source":"CELESTRAK","updated_at":"2026-09-21T09:00:35.047158Z"}}